FW3096 Weather Reports


Display with metric or nautical units.
time (UTC)temp
F
wind
direction
speed
MPH
gust
MPH
rain 1hr
in
rain 24hr
in
rain mn
in
humidity
%
barometer
mb
20260510201010 75 319 0.0 4.0 0.00 0.00 0.00 62 1013.4
20260510200020 75 188 1.0 4.0 0.00 0.00 0.00 65 1013.3
20260510195509 76 205 1.0 4.0 0.00 0.00 0.00 57 1013.4
20260510195010 76 148 1.0 4.0 0.00 0.00 0.00 62 1013.6
20260510194511 77 331 2.0 4.0 0.00 0.00 0.00 58 1013.7
20260510194010 76 320 1.0 5.0 0.00 0.00 0.00 60 1013.7
20260510193509 75 300 2.0 5.0 0.00 0.00 0.00 60 1013.8
20260510193012 75 158 0.0 4.0 0.00 0.00 0.00 63 1013.7
20260510192509 76 193 0.0 4.0 0.00 0.00 0.00 65 1013.7
20260510192010 76 191 2.0 4.0 0.00 0.00 0.00 58 1013.8
20260510191510 76 219 1.0 4.0 0.00 0.00 0.00 58 1013.8
20260510191009 75 325 0.0 5.0 0.00 0.00 0.00 58 1013.8
20260510190509 75 195 3.0 5.0 0.00 0.00 0.00 60 1013.9
20260510190011 74 323 0.0 5.0 0.00 0.00 0.00 60 1014.1
20260510185509 74 310 2.0 8.0 0.00 0.00 0.00 61 1014.1
20260510185012 74 293 2.0 8.0 0.00 0.00 0.00 60 1014.0
20260510184010 74 294 1.0 10.0 0.00 0.00 0.00 61 1013.9
20260510183511 74 315 3.0 10.0 0.00 0.00 0.00 60 1014.0
20260510182509 76 305 3.0 11.0 0.00 0.00 0.00 59 1013.9
20260510182011 77 299 5.0 10.0 0.00 0.00 0.00 56 1013.9
20260510181509 78 320 3.0 9.0 0.00 0.00 0.00 60 1013.9
20260510181010 79 55 0.0 7.0 0.00 0.00 0.00 58 1014.0
20260510180510 77 220 0.0 8.0 0.00 0.00 0.00 59 1013.9
20260510180029 76 288 4.0 9.0 0.00 0.00 0.00 59 1014.0
20260510175509 76 319 4.0 9.0 0.00 0.00 0.00 57 1014.0
20260510175015 76 298 3.0 12.0 0.00 0.00 0.00 56 1014.0
20260510174509 77 273 4.0 10.0 0.00 0.00 0.00 56 1014.0
20260510174010 77 294 2.0 10.0 0.00 0.00 0.00 55 1014.0
20260510173511 78 291 3.0 10.0 0.00 0.00 0.00 54 1014.0
20260510173010 77 331 2.0 13.0 0.00 0.00 0.00 55 1014.0
20260510172011 78 270 1.0 12.0 0.00 0.00 0.00 57 1013.9
20260510171010 77 289 4.0 9.0 0.00 0.00 0.00 54 1014.0
20260510170510 77 313 2.0 8.0 0.00 0.00 0.00 56 1013.8
20260510170011 77 266 3.0 8.0 0.00 0.00 0.00 54 1013.7
20260510165509 77 163 2.0 8.0 0.00 0.00 0.00 58 1013.9
20260510165011 77 329 2.0 8.0 0.00 0.00 0.00 61 1013.9
20260510164509 76 227 1.0 6.0 0.00 0.00 0.00 61 1013.8
20260510164012 76 249 1.0 9.0 0.00 0.00 0.00 61 1013.8
20260510163509 76 297 2.0 9.0 0.00 0.00 0.00 63 1013.9
20260510163010 76 256 1.0 7.0 0.00 0.00 0.00 63 1013.8
20260510162510 76 192 1.0 4.0 0.00 0.00 0.00 62 1013.9
20260510162010 75 186 2.0 6.0 0.00 0.00 0.00 60 1013.9
20260510161509 75 286 0.0 8.0 0.00 0.00 0.00 65 1014.0
20260510160509 75 250 2.0 8.0 0.00 0.00 0.00 62 1013.9
20260510160011 75 346 1.0 8.0 0.00 0.00 0.00 62 1013.8
20260510154508 74 315 1.0 10.0 0.00 0.00 0.00 62 1014.0
20260510154011 74 315 3.0 10.0 0.00 0.00 0.00 65 1014.0
20260510153509 73 284 2.0 8.0 0.00 0.00 0.00 65 1014.0
20260510153010 73 271 3.0 7.0 0.00 0.00 0.00 65 1014.2
20260510152509 73 240 3.0 8.0 0.00 0.00 0.00 64 1014.1
20260510152012 73 252 4.0 8.0 0.00 0.00 0.00 63 1014.2
20260510151509 72 287 1.0 8.0 0.00 0.00 0.00 67 1014.3
20260510151010 72 300 3.0 5.0 0.00 0.00 0.00 67 1014.2
20260510150511 72 346 0.0 8.0 0.00 0.00 0.00 66 1014.1
20260510150012 71 343 2.0 8.0 0.00 0.00 0.00 67 1014.1
20260510145509 72 281 1.0 4.0 0.00 0.00 0.00 68 1014.2
20260510145012 71 331 0.0 5.0 0.00 0.00 0.00 71 1014.2
20260510144010 70 299 0.0 7.0 0.00 0.00 0.00 75 1014.3
20260510143511 69 306 2.0 3.0 0.00 0.00 0.00 74 1014.3
20260510143010 69 63 0.0 4.0 0.00 0.00 0.00 75 1014.2
20260510142509 69 285 2.0 4.0 0.00 0.00 0.00 76 1014.2
20260510142011 68 337 0.0 4.0 0.00 0.00 0.00 78 1014.3
20260510141509 67 339 0.0 4.0 0.00 0.00 0.00 79 1014.3
20260510140509 65 207 1.0 2.0 0.00 0.00 0.00 80 1014.3
20260510140012 65 265 0.0 2.0 0.00 0.00 0.00 82 1014.3
20260510135509 64 271 0.0 4.0 0.00 0.00 0.00 83 1014.3
20260510135010 64 271 2.0 4.0 0.00 0.00 0.00 82 1014.3
20260510134509 63 286 2.0 4.0 0.00 0.00 0.00 83 1014.3
20260510134010 62 326 1.0 4.0 0.00 0.00 0.00 86 1014.3
20260510133509 62 211 0.0 1.0 0.00 0.00 0.00 86 1014.3
20260510133009 61 281 0.0 3.0 0.00 0.00 0.00 87 1014.3
20260510132511 61 279 2.0 3.0 0.00 0.00 0.00 88 1014.3
20260510132016 60 196 1.0 3.0 0.00 0.00 0.00 89 1014.3
20260510131509 60 217 1.0 3.0 0.00 0.00 0.00 90 1014.2
20260510131014 59 271 1.0 3.0 0.00 0.00 0.00 91 1014.4
20260510130509 58 192 2.0 3.0 0.00 0.00 0.00 92 1014.4
20260510130011 58 239 1.0 3.0 0.00 0.00 0.00 93 1014.3
20260510125511 57 285 0.0 1.0 0.00 0.00 0.00 94 1014.4
20260510124509 56 291 1.0 2.0 0.00 0.00 0.00 95 1014.3
20260510124012 55 169 0.0 0.0 0.00 0.00 0.00 96 1014.3
20260510123509 55 169 0.0 2.0 0.00 0.00 0.00 96 1014.3
20260510123010 55 169 0.0 2.0 0.00 0.00 0.00 96 1014.3
20260510122511 55 169 0.0 0.0 0.00 0.00 0.00 96 1014.3
20260510122010 55 169 0.0 2.0 0.00 0.00 0.00 97 1014.1
20260510121011 54 169 1.0 3.0 0.00 0.00 0.00 97 1013.8
20260510120509 54 169 0.0 2.0 0.00 0.00 0.00 97 1013.9
20260510120011 53 207 0.0 2.0 0.00 0.00 0.00 97 1013.9
20260510115509 53 202 0.0 0.0 0.00 0.00 0.00 97 1013.9
20260510115010 53 202 0.0 0.0 0.00 0.00 0.00 97 1013.8
20260510114509 53 202 0.0 0.0 0.00 0.00 0.00 97 1013.8
20260510114010 52 202 0.0 2.0 0.00 0.00 0.00 97 1013.8
20260510113509 52 202 0.0 3.0 0.00 0.00 0.00 97 1013.6
20260510113012 52 202 0.0 3.0 0.00 0.00 0.00 97 1013.3
20260510112509 52 303 2.0 3.0 0.00 0.00 0.00 97 1013.7
20260510112010 51 179 0.0 2.0 0.00 0.00 0.00 97 1013.6
20260510111508 51 179 0.0 2.0 0.00 0.00 0.00 97 1013.5
20260510111009 51 307 0.0 2.0 0.00 0.00 0.00 97 1013.6
20260510110509 51 307 0.0 2.0 0.00 0.00 0.00 97 1013.6
20260510110011 50 307 0.0 0.0 0.00 0.00 0.00 96 1013.5
20260510105508 50 307 0.0 0.0 0.00 0.00 0.00 97 1013.4
20260510105010 50 307 0.0 0.0 0.00 0.00 0.00 97 1013.3
20260510104508 50 307 0.0 0.0 0.00 0.00 0.00 96 1013.2
20260510104008 50 307 0.0 0.0 0.00 0.00 0.00 96 1013.2
20260510103009 50 307 0.0 0.0 0.00 0.00 0.00 96 1013.1
20260510102508 50 307 0.0 0.0 0.00 0.00 0.00 96 1012.9
20260510102009 50 307 0.0 0.0 0.00 0.00 0.00 96 1012.8
20260510101508 50 307 0.0 0.0 0.00 0.00 0.00 96 1012.8
20260510101009 50 307 0.0 0.0 0.00 0.00 0.00 96 1013.0
20260510100508 50 307 0.0 0.0 0.00 0.00 0.00 96 1013.0
20260510100013 50 307 0.0 0.0 0.00 0.00 0.00 96 1012.8
20260510095508 50 307 0.0 0.0 0.00 0.00 0.00 96 1012.6
20260510095009 49 307 0.0 0.0 0.00 0.00 0.00 96 1012.7
20260510094509 49 307 0.0 0.0 0.00 0.00 0.00 96 1012.7
20260510094009 49 307 0.0 0.0 0.00 0.00 0.00 96 1012.5
20260510093508 49 307 0.0 0.0 0.00 0.00 0.00 96 1012.5
20260510093010 49 307 0.0 1.0 0.00 0.00 0.00 96 1012.4
20260510092508 49 307 0.0 4.0 0.00 0.00 0.00 96 1012.4
20260510092009 49 307 1.0 4.0 0.00 0.00 0.00 96 1012.5
20260510091009 49 307 3.0 4.0 0.00 0.00 0.00 96 1012.6
20260510090508 49 292 0.0 5.0 0.00 0.00 0.00 96 1012.5
20260510090012 49 292 1.0 5.0 0.00 0.00 0.00 95 1012.6
20260510085508 49 306 2.0 5.0 0.00 0.00 0.00 95 1012.9
20260510085009 49 304 0.0 4.0 0.00 0.00 0.00 95 1012.4
20260510084509 49 315 2.0 4.0 0.00 0.00 0.00 95 1013.0
20260510084009 48 242 1.0 9.0 0.00 0.00 0.00 95 1012.5
20260510083508 47 330 2.0 9.0 0.00 0.00 0.00 95 1012.7
20260510083010 46 160 0.0 0.0 0.00 0.00 0.00 94 1012.1
20260510082008 46 160 0.0 0.0 0.00 0.00 0.00 94 1012.0
20260510081510 46 160 0.0 0.0 0.00 0.00 0.00 94 1012.1
20260510081009 46 160 0.0 0.0 0.00 0.00 0.00 94 1011.9
20260510080508 46 160 0.0 0.0 0.00 0.00 0.00 94 1011.9
20260510080011 46 160 0.0 0.0 0.00 0.00 0.00 94 1011.9
20260510075008 46 160 0.0 0.0 0.00 0.00 0.00 94 1012.1
20260510074509 47 160 0.0 0.0 0.00 0.00 0.00 94 1012.0
20260510074009 47 160 0.0 0.0 0.00 0.00 0.00 94 1011.9
20260510073508 47 160 0.0 0.0 0.00 0.00 0.00 94 1011.9
20260510073009 47 160 0.0 0.0 0.00 0.00 0.00 94 1011.9
20260510072508 47 160 0.0 0.0 0.00 0.00 0.00 94 1011.8
20260510072009 47 160 0.0 0.0 0.00 0.00 0.00 94 1011.7
20260510071507 47 160 0.0 0.0 0.00 0.00 0.00 94 1011.6
20260510071010 47 160 0.0 0.0 0.00 0.00 0.00 94 1011.6
20260510070508 47 160 0.0 0.0 0.00 0.00 0.00 93 1011.4
20260510070010 47 160 0.0 0.0 0.00 0.00 0.00 93 1011.3
20260510065508 47 160 0.0 0.0 0.00 0.00 0.00 93 1011.3
20260510064508 47 160 0.0 0.0 0.00 0.00 0.00 93 1011.3
20260510064011 47 160 0.0 0.0 0.00 0.00 0.00 93 1011.2
20260510062509 47 160 0.0 0.0 0.00 0.00 0.00 93 1011.5
20260510062009 47 160 0.0 0.0 0.00 0.00 0.00 93 1011.5
20260510061508 47 160 0.0 0.0 0.00 0.00 0.00 93 1011.5
20260510061010 48 160 0.0 0.0 0.00 0.00 0.00 93 1011.5
20260510060010 48 160 0.0 0.0 0.00 0.00 0.00 93 1011.5
20260510055509 48 160 0.0 0.0 0.00 0.00 0.00 93 1011.6
20260510055009 48 160 0.0 0.0 0.00 0.00 0.00 93 1011.6
20260510054507 48 160 0.0 0.0 0.00 0.00 0.00 93 1011.6
20260510054014 48 160 0.0 0.0 0.00 0.00 0.00 93 1011.7
20260510053508 48 160 0.0 0.0 0.00 0.00 0.00 93 1011.8
20260510053008 48 160 0.0 0.0 0.00 0.00 0.00 93 1011.8
20260510052009 49 160 0.0 0.0 0.00 0.00 0.00 92 1011.9
20260510051508 49 160 0.0 0.0 0.00 0.00 0.00 92 1011.9
20260510051010 49 160 0.0 0.0 0.00 0.00 0.00 92 1011.9
20260510050508 49 160 0.0 0.0 0.00 0.00 0.00 92 1012.0
20260510050009 49 160 0.0 0.0 0.00 0.00 0.00 92 1012.1
20260510045509 49 160 0.0 0.0 0.00 0.00 0.00 92 1012.1
20260510045010 49 160 0.0 0.0 0.00 0.00 0.00 92 1012.1
20260510044010 49 160 0.0 0.0 0.00 0.00 0.00 92 1012.2
20260510043509 49 160 0.0 0.0 0.00 0.00 0.00 92 1012.1
20260510043011 49 160 0.0 0.0 0.00 0.00 0.00 92 1012.1
20260510042509 49 160 0.0 0.0 0.00 0.00 0.00 92 1012.2
20260510041010 50 160 0.0 0.0 0.00 0.00 0.00 92 1012.3
20260510040509 50 160 0.0 0.0 0.00 0.00 0.00 92 1012.3
20260510040017 50 160 0.0 0.0 0.00 0.00 0.00 91 1012.3
20260510035509 50 160 0.0 0.0 0.00 0.00 0.00 91 1012.3
20260510035010 50 160 0.0 0.0 0.00 0.00 0.00 91 1012.2
20260510034010 51 160 0.0 0.0 0.00 0.00 0.00 91 1012.2
20260510033509 51 160 0.0 0.0 0.00 0.00 0.00 91 1012.1
20260510033017 51 160 0.0 0.0 0.00 0.00 0.00 91 1012.1
20260510032509 51 160 0.0 0.0 0.00 0.00 0.00 91 1012.0
20260510032009 51 160 0.0 0.0 0.00 0.00 0.00 91 1012.1
20260510031510 51 160 0.0 0.0 0.00 0.00 0.00 91 1012.0
20260510031009 51 160 0.0 0.0 0.00 0.00 0.00 91 1011.9
20260510030015 51 160 0.0 0.0 0.00 0.00 0.00 91 1011.8
20260510025009 52 160 0.0 0.0 0.00 0.00 0.00 90 1011.7
20260510024010 52 160 0.0 0.0 0.00 0.00 0.00 90 1011.8
20260510023509 52 160 0.0 0.0 0.00 0.00 0.00 90 1011.9
20260510023011 52 160 0.0 0.0 0.00 0.00 0.00 90 1011.9
20260510022509 52 160 0.0 0.0 0.00 0.00 0.00 90 1011.9
20260510022010 52 160 0.0 0.0 0.00 0.00 0.00 90 1011.9
20260510021510 53 160 0.0 0.0 0.00 0.00 0.00 90 1011.9
20260510021009 53 160 0.0 0.0 0.00 0.00 0.00 89 1011.9
20260510020509 53 160 0.0 0.0 0.00 0.00 0.00 89 1011.7
20260510020011 53 160 0.0 0.0 0.00 0.00 0.00 89 1011.7
20260510015509 53 160 0.0 0.0 0.00 0.00 0.00 89 1011.8
20260510015010 53 160 0.0 0.0 0.00 0.00 0.00 89 1011.6
20260510014509 54 160 0.0 0.0 0.00 0.00 0.00 89 1011.6
20260510014011 54 160 0.0 0.0 0.00 0.00 0.00 89 1011.6
20260510013509 54 160 0.0 0.0 0.00 0.00 0.00 89 1011.7
20260510013010 54 160 0.0 0.0 0.00 0.00 0.00 89 1011.7
20260510012509 54 160 0.0 0.0 0.00 0.00 0.00 88 1011.6
20260510012010 55 160 0.0 0.0 0.00 0.00 0.00 88 1011.6
20260510011509 55 160 0.0 0.0 0.00 0.00 0.00 88 1011.4
20260510011010 55 160 0.0 0.0 0.00 0.00 0.00 88 1011.4
20260510010509 55 160 0.0 0.0 0.00 0.00 0.00 88 1011.4
20260510010015 55 160 0.0 0.0 0.00 0.00 0.00 87 1011.3
20260510005509 55 160 0.0 0.0 0.00 0.00 0.00 87 1011.3
20260510005010 55 160 0.0 0.0 0.00 0.00 0.00 87 1011.3
20260510004511 56 160 0.0 0.0 0.00 0.00 0.00 87 1011.2
20260510004019 56 160 0.0 0.0 0.00 0.00 0.00 87 1011.3
20260510003509 56 160 0.0 0.0 0.00 0.00 0.00 86 1011.2
20260510003011 56 160 0.0 0.0 0.00 0.00 0.00 86 1011.2
20260510002509 56 160 0.0 0.0 0.00 0.00 0.00 86 1011.2
20260510002010 57 160 0.0 0.0 0.00 0.00 0.00 86 1011.2
20260510001511 57 160 0.0 0.0 0.00 0.00 0.00 86 1011.2
20260510000509 57 160 0.0 0.0 0.00 0.00 0.00 86 1011.1
20260510000020 57 160 0.0 0.0 0.00 0.00 0.00 86 1011.2
20260509235508 57 160 0.0 0.0 0.00 0.00 0.00 86 1011.1
20260509235010 57 160 0.0 0.0 0.00 0.00 0.00 86 1011.1
20260509234510 57 160 0.0 0.0 0.00 0.00 0.00 86 1011.2
20260509234011 58 160 0.0 0.0 0.00 0.00 0.00 86 1011.2
20260509233011 58 160 0.0 0.0 0.00 0.00 0.00 85 1011.1
20260509232509 58 160 0.0 0.0 0.00 0.00 0.00 85 1011.1
20260509232011 58 160 0.0 0.0 0.00 0.00 0.00 85 1011.0
20260509231509 59 160 0.0 0.0 0.00 0.00 0.00 85 1011.0
20260509231009 59 160 0.0 0.0 0.00 0.00 0.00 85 1010.9
20260509230510 59 160 0.0 2.0 0.00 0.00 0.00 85 1010.9
20260509225509 59 155 0.0 1.0 0.00 0.00 0.00 85 1010.9
20260509225011 59 155 0.0 4.0 0.00 0.00 0.00 85 1011.0
20260509224508 59 180 1.0 4.0 0.00 0.00 0.00 85 1011.0
20260509224010 59 181 0.0 2.0 0.00 0.00 0.00 86 1011.1
20260509223510 58 181 0.0 2.0 0.00 0.00 0.00 86 1011.0
20260509223009 58 181 0.0 2.0 0.00 0.00 0.00 87 1011.2
20260509222509 58 180 0.0 1.0 0.00 0.00 0.00 87 1011.2
20260509222011 58 153 0.0 2.0 0.00 0.00 0.00 86 1011.1
20260509221012 58 189 1.0 3.0 0.00 0.00 0.00 87 1011.1
20260509220510 58 220 0.0 2.0 0.00 0.00 0.00 89 1011.2
20260509220012 58 220 0.0 2.0 0.00 0.00 0.00 89 1011.2
20260509215508 57 220 1.0 2.0 0.00 0.00 0.00 89 1011.2
20260509215011 57 220 0.0 0.0 0.00 0.00 0.00 89 1011.2
20260509214509 57 223 0.0 0.0 0.00 0.00 0.00 88 1011.3
20260509214010 57 223 0.0 3.0 0.00 0.00 0.00 88 1011.3
20260509213510 57 220 1.0 3.0 0.00 0.00 0.00 89 1011.3
20260509213009 58 220 0.0 0.0 0.00 0.00 0.00 89 1011.3
20260509212509 58 220 0.0 1.0 0.00 0.00 0.00 89 1011.3
20260509212011 58 220 0.0 1.0 0.00 0.00 0.00 89 1011.3
20260509211510 58 318 0.0 0.0 0.00 0.00 0.00 89 1011.2
20260509211011 57 318 0.0 0.0 0.00 0.00 0.00 89 1011.1
20260509210510 57 318 0.0 1.0 0.00 0.00 0.00 88 1011.1
20260509210011 58 318 0.0 3.0 0.00 0.00 0.00 86 1011.0
20260509205511 58 318 0.0 3.0 0.00 0.00 0.00 84 1010.9
20260509205025 59 321 2.0 3.0 0.00 0.00 0.00 83 1011.1
20260509204510 59 340 0.0 3.0 0.00 0.00 0.00 82 1011.1
20260509204021 59 349 0.0 3.0 0.00 0.00 0.00 82 1011.3
20260509203510 59 180 0.0 4.0 0.00 0.00 0.00 82 1011.1
20260509203011 60 180 0.0 6.0 0.00 0.00 0.00 80 1011.1
20260509202511 61 320 3.0 6.0 0.00 0.00 0.00 79 1011.1
20260509202011 61 296 2.0 5.0 0.00 0.00 0.00 83 1011.0
20260509201510 61 223 2.0 8.0 0.00 0.00 0.00 84 1011.1